K1IC-1 Weather Reports


time (UTC)temp
F
wind
direction
speed
knots
gust
knots
rain 1hr
in
rain 24hr
in
rain mn
in
humidity
%
barometer
mb
20260504175018 69 237 3.5 8.7 0.00 0.00 0.00 42 1010.1
20260504174021 69 239 2.6 6.1 0.00 0.00 0.00 42 1010.3
20260504173045 69 234 2.6 6.1 0.00 0.00 0.00 42 1010.3
20260504172021 68 223 2.6 6.1 0.00 0.00 0.00 43 1010.5
20260504171021 68 240 1.7 5.2 0.00 0.00 0.00 43 1010.5
20260504151037 63 293 2.6 5.2 0.00 0.00 0.00 51 1011.9
20260504141018 60 254 2.6 6.1 0.00 0.00 0.00 55 1012.3
20260504081017 40 291 0.0 0.9 0.00 0.00 0.00 80 1012.6
20260504045021 42 336 0.9 1.7 0.00 0.00 0.00 76 1011.9
20260504044021 42 336 0.9 1.7 0.00 0.00 0.00 76 1011.9
20260504043022 42 193 0.9 2.6 0.00 0.00 0.00 76 1011.9
20260504042021 43 251 0.0 0.9 0.00 0.00 0.00 74 1012.0
20260504041021 43 348 0.9 1.7 0.00 0.00 0.00 74 1011.9
20260504040022 43 341 0.0 1.7 0.00 0.00 0.00 72 1011.8
20260504035021 43 352 0.9 1.7 0.00 0.00 0.00 72 1011.8
20260504034022 43 349 0.0 1.7 0.00 0.00 0.00 71 1011.9
20260504033022 44 337 0.9 1.7 0.00 0.00 0.00 69 1011.7
20260504032022 44 236 0.9 1.7 0.00 0.00 0.00 69 1011.7
20260504031022 44 321 0.9 0.9 0.00 0.00 0.00 66 1011.6
20260504030023 44 319 0.0 0.9 0.00 0.00 0.00 66 1011.7
20260504025022 45 331 0.0 0.9 0.00 0.00 0.00 64 1011.7
20260504024043 45 299 0.0 0.9 0.00 0.00 0.00 64 1011.7
20260504023024 46 302 0.0 0.9 0.00 0.00 0.00 63 1011.7
20260504022023 46 299 0.0 0.9 0.00 0.00 0.00 61 1011.7
20260504021024 47 316 0.9 1.7 0.00 0.00 0.00 58 1011.6
20260504020024 47 304 0.0 0.9 0.00 0.00 0.00 57 1011.6
20260504015024 48 318 0.9 0.9 0.00 0.00 0.00 56 1011.6
20260504014024 48 323 0.0 0.9 0.00 0.00 0.00 55 1011.6
20260504013024 49 325 0.0 0.9 0.00 0.00 0.00 54 1011.4
20260504012044 50 314 0.0 0.9 0.00 0.00 0.00 53 1011.3
20260504011024 51 321 0.0 0.9 0.00 0.00 0.00 49 1011.2
20260504010025 51 291 0.0 0.9 0.00 0.00 0.00 50 1011.0
20260504005125 52 276 0.0 0.0 0.00 0.00 0.00 48 1010.8
20260504004024 54 262 0.0 0.0 0.00 0.00 0.00 45 1010.7
20260504003025 54 226 0.0 0.9 0.00 0.00 0.00 43 1010.5
20260504002026 55 306 0.0 0.9 0.00 0.00 0.00 41 1010.4
20260504001025 55 210 0.0 0.9 0.00 0.00 0.00 39 1010.2
20260504000025 56 295 0.0 0.9 0.00 0.00 0.00 37 1010.1
20260503235025 56 334 0.9 1.7 0.00 0.00 0.00 36 1009.9
20260503234026 57 328 0.9 2.6 0.00 0.00 0.00 35 1009.7
20260503233021 57 323 1.7 6.1 0.00 0.00 0.00 34 1009.6
20260503232020 57 333 1.7 4.3 0.00 0.00 0.00 34 1009.5
20260503231040 58 325 2.6 4.3 0.00 0.00 0.00 34 1009.4
20260503230021 59 310 1.7 5.2 0.00 0.00 0.00 33 1009.4
20260503225021 59 328 4.3 7.8 0.00 0.00 0.00 33 1009.2
20260503224058 60 329 4.3 8.7 0.00 0.00 0.00 33 1009.1
20260503223021 60 312 2.6 6.1 0.00 0.00 0.00 34 1009.1
20260503222021 60 322 4.3 7.8 0.00 0.00 0.00 34 1009.1
20260503221036 60 333 2.6 6.1 0.00 0.00 0.00 37 1009.1
20260503220016 59 324 4.3 7.8 0.00 0.00 0.00 37 1009.1
20260503215015 59 338 3.5 6.1 0.00 0.00 0.00 37 1009.1
20260503214036 59 327 5.2 9.6 0.00 0.00 0.00 37 1009.1
20260503213036 60 351 3.5 7.8 0.00 0.00 0.00 39 1009.0
20260503212016 59 328 2.6 7.0 0.00 0.00 0.00 40 1009.0
20260503211016 59 344 4.3 10.4 0.00 0.00 0.00 39 1008.9
20260503210016 59 320 4.3 9.6 0.00 0.00 0.00 38 1008.8
20260503205016 59 323 3.5 8.7 0.00 0.00 0.00 39 1008.9
20260503204036 59 332 3.5 7.8 0.00 0.00 0.00 40 1008.8
20260503203016 58 308 5.2 8.7 0.00 0.00 0.00 39 1008.8
20260503202017 58 333 3.5 7.8 0.00 0.00 0.00 40 1008.8
20260503201017 57 326 5.2 10.4 0.00 0.00 0.00 41 1008.9
20260503200017 57 344 4.3 7.8 0.00 0.00 0.00 40 1009.2
20260503195017 57 332 3.5 7.0 0.00 0.00 0.00 43 1009.0
20260503194017 56 331 3.5 7.0 0.00 0.00 0.00 42 1009.2
20260503193038 56 319 3.5 7.8 0.00 0.00 0.00 41 1009.5
20260503192017 56 322 5.2 9.6 0.00 0.00 0.00 41 1009.5
20260503191018 56 325 3.5 7.8 0.00 0.00 0.00 42 1009.2
20260503190018 57 337 3.5 9.6 0.00 0.00 0.00 42 1009.4
20260503185020 56 326 5.2 11.3 0.00 0.00 0.00 41 1009.4
20260503184018 56 314 5.2 13.9 0.00 0.00 0.00 41 1009.3
20260503183059 55 332 3.5 7.8 0.00 0.00 0.00 41 1009.5
20260503182020 56 323 4.3 9.6 0.00 0.00 0.00 41 1009.3
20260503181018 56 325 4.3 7.8 0.00 0.00 0.00 41 1009.2
20260503180018 55 337 3.5 7.8 0.00 0.00 0.00 41 1009.2